Terminal Aerodrome Forecast
Issued by NWS

Home | Current Version | Previous Version | Graphics & Text | Print | Product List | Glossary On
Versions: 1 2 3 4 5 6 7 8 9 10 11 12
000
FTUS42 KMHX 212340
TAFOAJ
TAF
KOAJ 212340Z 2200/2224 09008KT P6SM SCT250
      TEMPO 2209/2211 5SM BR
     FM221200 08003KT P6SM SCT250
      AMD LTD TO CLD VIS AND WIND=

USA.gov is the U.S. government's official web portal to all federal, state and local government web resources and services.